User: anonymous   Login
Location: Unspecified
(0.0000°N, 0.0000°E)
Time: 02:05:46
(UTC+00:00)
Language:

DNEPR OBJECT AF - Orbit

View from above orbital plane
View from above orbital plane
View from above satellite
View from above satellite

Ground track
Ground track

The orbit data is extracted from the following two-line orbital elements,

1 39445U 13066AF  18170.50203513 +.00000249 +00000-0 +37151-4 0  9993
2 39445 097.5887 200.4703 0059331 142.6142 217.9223 14.81584498245377
Epoch (UTC): 19 June 2018 12:02:55
Eccentricity: 0.0059331
inclination: 97.5887°
perigee height: 583 km
apogee height: 666 km
right ascension of ascending node: 200.4703°
argument of perigee: 142.6142°
revolutions per day: 14.81584498
mean anomaly at epoch: 217.9223°
orbit number at epoch: 24537

The dashed part of the orbit path shows where the satellite is in the earth's shadow,  

DLR